ECMWFNIL_500_spd_021.txt.gz
Wind_Speed
58 56 55 54 53 52 51 52 52 53 53 53 52 51 51 52 52 53 53 53 54 55 55 55 55 54 54 53 53 54 54 54 53 53 54 53 51 50 49 49 49 49
64 62 60 59 58 57 56 56 55 55 55 55 54 53 53 53 53 53 53 53 54 55 56 56 56 55 55 55 55 56 56 55 55 55 55 54 53 51 51 51 51 51
67 65 64 63 61 60 60 60 60 59 59 58 58 56 55 55 54 54 54 55 55 56 57 57 57 57 57 57 57 57 58 58 57 58 58 57 56 54 54 54 54 54
68 66 64 64 64 63 62 62 62 62 62 62 61 60 60 59 58 57 57 58 58 58 59 59 59 59 59 59 59 59 59 59 59 59 59 59 58 57 57 57 56 56
67 67 65 64 66 66 65 63 63 63 64 64 64 63 63 62 62 61 61 61 61 61 61 61 61 61 62 62 62 62 62 61 61 60 60 59 59 58 58 58 58 57
65 67 66 65 66 67 66 65 64 64 64 65 65 65 65 66 65 64 64 64 64 64 64 64 64 64 64 64 64 64 64 63 63 62 61 60 59 59 58 58 58 59
64 66 66 65 65 66 66 65 65 65 65 65 66 67 67 67 67 67 67 68 68 67 67 66 66 66 66 66 66 66 65 65 64 63 61 60 59 59 59 59 60 59
64 64 63 62 62 63 65 67 67 67 67 67 67 67 67 67 68 68 69 69 69 68 68 67 67 67 67 67 67 66 66 65 64 63 62 61 60 61 61 61 61 60
67 66 62 58 59 62 66 69 69 68 69 69 68 68 68 68 68 69 69 69 68 68 68 67 67 67 67 67 67 66 66 65 65 64 64 63 62 63 63 63 62 61
69 67 63 59 59 62 67 69 69 67 68 69 70 70 70 70 70 71 70 70 69 69 68 68 66 66 66 66 66 66 66 66 66 66 66 66 66 65 65 65 64 62
70 69 66 62 61 63 67 69 69 69 68 68 70 71 72 73 73 73 72 72 71 71 71 70 69 68 68 68 68 68 68 68 68 67 67 67 67 66 65 64 62 60
77 76 75 71 67 67 70 73 73 72 72 71 71 73 74 75 75 75 75 75 74 74 74 73 72 72 71 70 70 70 69 69 68 67 66 65 64 63 62 61 59 57
81 81 81 80 75 71 73 77 78 77 76 74 73 74 75 76 77 77 77 78 78 78 78 77 76 75 73 72 71 70 70 69 67 66 64 63 61 61 60 60 60 60
83 83 83 83 82 78 75 78 79 80 80 78 76 75 76 77 78 78 79 79 80 80 81 81 80 77 75 74 73 72 70 69 67 66 64 62 61 61 62 63 63 63
87 88 87 87 87 86 83 82 81 81 81 82 80 78 77 78 78 78 78 79 80 81 83 83 83 81 79 76 74 72 71 70 70 69 68 65 64 64 65 66 66 64
89 90 91 90 90 89 86 84 82 81 81 83 84 82 81 79 79 78 77 77 78 80 83 84 84 82 80 78 76 73 72 71 72 72 71 69 68 68 69 68 66 65
87 88 89 90 90 88 86 82 80 78 79 82 84 85 86 85 85 84 82 81 81 81 83 85 84 83 80 79 78 76 74 74 75 75 73 71 71 71 71 69 67 65
89 89 89 89 89 89 88 86 83 80 80 81 83 85 87 88 88 88 87 87 86 85 85 86 86 84 82 81 81 80 79 78 78 76 73 72 73 73 72 70 67 66
92 91 89 88 87 87 88 88 88 87 85 84 85 86 87 88 88 89 88 88 88 87 87 87 88 86 85 84 85 85 82 79 77 73 71 72 73 73 73 71 69 68
97 93 89 87 85 84 84 86 88 89 89 88 87 87 88 89 89 90 90 90 90 89 89 88 88 87 86 86 87 86 82 79 77 76 75 73 73 73 73 72 70 69
102 98 94 90 86 84 83 84 86 89 91 91 90 89 89 90 91 91 90 90 90 90 90 89 89 89 89 88 89 87 83 80 79 77 75 73 71 71 72 71 71 71
100 101 99 95 91 86 83 84 87 89 91 92 91 91 92 91 91 90 89 89 89 90 90 89 89 89 89 88 86 85 83 82 79 76 73 70 69 70 70 71 72 72
90 93 96 97 95 91 87 85 86 89 89 90 89 90 90 91 90 90 89 88 87 87 87 86 85 85 83 83 82 81 81 80 78 76 73 71 69 70 72 73 72 72
86 87 89 92 94 95 92 90 89 89 89 88 88 87 87 87 88 89 89 86 84 82 81 80 79 78 78 78 79 78 77 77 76 76 75 73 72 71 71 73 72 71
90 90 90 90 92 94 94 93 92 92 91 91 90 88 87 87 87 88 89 88 85 82 81 80 79 78 76 76 76 76 75 76 77 77 76 76 75 73 72 71 71 71
94 91 90 91 92 93 93 92 91 91 92 93 92 92 90 90 91 92 92 92 90 88 86 84 83 82 79 77 77 76 76 77 79 78 76 75 75 75 74 73 73 74

ECMWFNIL_500_spd_024.txt.gz
Wind_Speed
53 53 55 57 59 60 61 61 60 60 59 60 61 62 63 64 65 66 66 66 66 66 65 65 65 64 63 62 62 61 61 61 60 59 58 57 57 57 56 56 57 58
57 55 55 55 57 59 61 63 63 63 63 62 62 63 65 66 66 67 67 67 67 67 67 67 66 65 64 64 63 62 62 62 61 60 60 60 59 58 58 58 58 59
61 59 58 59 59 61 61 63 65 66 67 66 65 65 66 67 68 68 68 68 68 68 68 67 66 66 65 64 63 63 63 62 61 62 62 62 61 60 60 60 60 60
63 63 62 62 63 64 63 63 66 68 70 70 68 67 67 68 69 69 69 69 69 69 69 68 67 67 66 65 65 64 64 63 62 63 63 63 62 61 61 61 61 61
65 65 64 63 63 63 64 64 66 69 71 72 71 69 68 68 69 69 69 70 70 70 70 70 69 68 68 67 66 66 65 65 65 64 63 62 62 62 62 62 62 62
63 63 63 63 63 63 64 65 67 69 71 72 71 69 67 67 67 67 68 69 69 70 70 69 69 69 69 68 68 68 68 67 67 66 64 64 64 64 64 64 64 63
62 62 62 63 63 63 65 66 69 71 71 70 69 68 66 66 65 65 66 67 67 67 67 67 67 67 67 68 68 69 69 69 69 68 67 66 66 66 65 65 65 65
63 63 63 63 64 64 66 67 69 72 73 71 69 67 65 65 64 64 64 65 66 66 66 66 65 65 65 65 66 68 69 70 70 70 69 69 68 67 67 67 66 66
63 65 65 65 66 66 67 68 70 73 75 74 72 70 67 65 64 64 65 65 66 66 67 67 67 66 66 66 66 67 69 70 71 71 71 70 69 69 68 69 68 68
66 67 68 69 69 69 70 71 72 75 77 77 76 74 71 69 66 65 65 66 67 68 68 69 69 69 69 69 69 69 70 70 71 71 71 70 70 70 70 70 70 69
70 70 71 72 72 72 72 73 74 76 78 79 79 77 76 74 72 70 69 68 69 70 71 71 71 71 71 71 72 72 72 72 72 72 72 71 70 70 70 70 70 69
76 74 74 75 77 77 77 77 78 79 79 80 81 80 79 78 78 76 75 73 72 72 73 73 74 74 74 74 74 75 75 75 74 74 73 72 71 70 70 70 70 69
81 80 79 79 80 81 82 82 82 82 83 83 83 84 83 82 81 81 79 76 74 74 75 76 76 76 76 77 78 78 78 78 78 77 76 74 73 72 72 72 71 70
80 81 82 82 84 85 85 85 85 85 85 85 85 86 86 85 84 83 81 78 75 75 76 77 78 79 79 80 81 82 83 83 82 81 79 77 76 75 75 74 73 72
82 82 82 82 83 84 86 87 88 88 89 89 89 88 88 88 86 85 84 81 80 78 77 78 78 80 81 83 85 86 87 87 86 84 82 80 79 78 77 77 76 75
90 89 89 88 87 86 86 87 88 90 90 91 92 92 92 91 91 90 88 87 86 84 82 81 80 80 82 84 87 89 90 90 89 88 86 84 82 81 80 79 79 78
92 92 93 93 93 93 92 92 92 92 92 92 93 93 93 93 94 94 94 93 92 91 89 87 85 84 85 85 86 89 91 92 92 91 90 89 87 86 84 83 82 82
94 93 93 93 94 94 94 95 95 95 96 96 95 95 95 95 95 95 95 95 95 95 94 93 91 90 89 89 88 88 90 92 94 94 93 92 91 90 88 87 86 84
98 97 97 96 96 96 97 97 97 97 98 98 98 98 98 98 97 97 96 95 94 93 93 93 93 92 92 91 91 90 91 92 94 94 94 94 93 91 90 89 88 87
104 103 103 102 102 102 102 103 102 102 101 101 101 100 99 99 99 99 99 98 96 94 93 91 90 91 92 91 91 91 92 93 94 94 94 94 94 93 91 90 89 88
107 107 107 107 106 106 107 107 107 106 105 105 104 104 103 101 101 101 101 101 100 98 96 93 90 90 91 92 91 91 93 94 95 95 95 94 94 93 93 92 91 90
106 107 107 107 107 108 107 107 107 106 105 105 105 105 105 105 104 103 103 103 103 102 101 98 94 90 90 91 92 94 95 96 96 96 96 96 95 94 93 92 92 92
101 102 103 105 105 106 105 105 104 104 103 103 103 103 103 104 104 104 103 103 103 103 103 101 98 94 91 91 93 95 97 98 98 98 97 97 97 96 96 95 93 93
97 98 99 101 102 103 103 103 102 101 101 101 101 101 100 100 100 102 102 101 100 99 99 99 98 96 93 92 93 95 98 99 100 100 99 98 98 97 97 96 94 93
94 95 97 98 99 100 101 101 101 100 99 99 99 100 100 100 98 98 99 99 97 95 94 93 93 93 94 94 93 94 97 99 101 101 100 99 99 99 98 97 95 93
91 93 94 95 97 98 99 99 99 99 99 99 99 99 100 101 100 98 96 95 94 94 93 90 88 87 89 92 94 95 96 98 100 101 101 99 96 94 92 93 94 95

ECMWFNIL_500_spd_030.txt.gz
Wind_Speed
72 73 72 72 71 71 71 71 71 70 70 69 68 67 66 65 64 64 63 64 65 66 66 67 67 68 69 69 70 70 70 70 69 69 69 68 67 68 68 67 66 64
71 72 73 72 72 72 72 73 73 72 72 71 70 69 68 67 67 66 66 65 66 68 69 69 70 71 72 72 72 72 72 72 72 71 71 70 70 70 69 70 69 68
72 72 73 73 73 73 74 74 74 74 73 72 71 70 70 69 69 69 68 68 68 69 71 72 72 73 74 75 75 74 73 73 73 74 73 73 72 72 71 72 72 71
74 74 74 75 75 75 75 74 75 74 74 73 72 71 71 71 70 70 71 71 70 71 72 74 75 76 77 77 77 77 76 75 74 75 75 75 75 75 74 74 74 74
75 76 77 77 76 76 75 75 75 75 75 74 74 73 72 72 72 72 73 73 72 72 73 74 76 78 79 79 79 79 78 77 77 76 76 76 76 76 76 77 76 76
72 73 73 74 74 74 75 75 75 76 76 76 75 75 74 73 73 73 74 74 74 74 74 75 76 77 79 80 81 81 81 80 80 78 76 75 75 76 76 78 78 78
69 68 67 69 70 72 73 73 74 75 76 76 77 77 77 77 76 76 76 76 76 75 76 76 77 78 79 80 81 82 83 83 82 80 79 78 77 76 76 77 78 79
73 72 72 73 73 74 76 77 76 77 77 77 79 80 81 81 81 80 80 80 79 79 78 78 78 80 81 81 82 82 84 84 84 83 82 81 81 80 79 78 78 78
76 77 78 78 77 77 79 81 81 81 80 80 82 83 83 83 84 83 82 82 83 83 82 81 80 82 83 84 84 84 84 84 85 85 84 83 82 82 81 81 79 78
85 85 83 82 81 81 82 84 86 86 86 86 86 86 86 86 86 86 86 86 86 86 86 85 84 84 85 86 87 87 86 85 84 84 85 85 85 83 82 82 81 79
91 90 89 87 86 86 86 87 88 91 93 94 94 93 92 92 92 92 91 90 89 90 91 91 89 87 86 87 88 88 88 87 85 84 84 86 87 86 84 82 80 78
91 92 93 93 92 91 91 91 92 93 95 97 98 98 97 97 96 96 95 94 93 93 93 93 92 90 89 89 89 89 89 89 89 87 87 87 88 89 88 86 83 80
97 98 98 98 98 98 98 98 99 99 99 100 101 102 102 102 102 102 101 100 99 97 96 96 95 94 93 93 93 93 92 92 92 92 91 91 91 91 90 90 88 86
103 103 102 101 101 101 101 101 102 102 103 103 104 104 105 106 106 107 106 106 105 103 101 99 98 97 97 97 97 96 96 96 96 96 96 95 93 92 92 91 90 89
106 106 105 105 104 103 103 102 102 102 103 103 103 104 104 104 105 106 106 107 107 107 105 103 100 99 98 99 99 99 99 99 99 99 99 99 97 95 93 91 91 90
107 107 107 107 107 107 106 106 105 104 104 103 103 103 102 102 102 102 102 103 104 105 106 105 104 101 99 98 98 99 101 102 102 101 101 101 101 99 97 94 92 91
106 107 107 107 107 107 108 108 108 107 107 106 106 105 104 104 103 102 101 101 101 102 103 103 104 103 102 100 99 99 99 101 103 104 104 104 103 102 101 100 97 95
106 106 107 107 107 107 108 108 108 109 109 109 109 109 109 108 107 107 106 105 104 104 104 104 104 104 104 103 103 102 101 101 102 103 105 106 106 105 104 103 103 101
104 104 105 106 106 107 108 108 109 109 109 110 111 112 112 112 112 112 112 111 111 110 109 108 108 108 108 108 108 108 107 107 106 105 104 106 107 107 106 105 104 104
99 100 101 102 103 104 105 106 107 108 108 109 110 111 112 113 114 115 115 115 115 116 115 114 113 112 112 113 114 114 114 113 112 110 108 107 107 108 108 107 106 105
93 95 96 97 98 99 100 101 102 104 105 106 107 108 109 110 111 112 113 114 115 115 116 116 116 115 115 115 115 115 115 115 115 113 112 111 109 108 108 108 108 108
87 89 90 91 91 92 93 94 95 97 98 99 101 102 102 103 104 105 106 107 108 109 110 111 112 112 112 112 112 112 112 112 113 113 113 113 112 111 110 109 109 109
83 84 85 85 86 88 88 89 90 91 91 93 94 95 96 96 97 98 98 99 100 101 102 104 104 104 104 105 105 105 105 105 107 109 110 111 112 112 112 112 111 110
81 83 83 84 84 85 86 87 87 88 88 89 91 92 92 92 93 94 94 94 95 96 97 98 99 98 97 97 98 98 99 99 100 101 104 106 108 109 110 111 112 111
81 82 83 83 83 83 84 85 85 85 86 87 88 89 90 90 90 92 92 92 92 93 94 95 96 96 94 94 94 94 95 96 96 97 98 99 101 103 104 106 109 111
81 81 82 82 82 82 82 82 83 83 84 84 86 87 88 88 89 90 91 90 90 91 92 93 94 94 94 94 94 94 94 95 96 97 96 95 95 96 98 100 102 105

ECMWFNIL_500_spd_033.txt.gz
Wind_Speed
68 69 70 71 72 73 73 74 75 75 75 73 72 72 73 72 71 70 69 69 68 68 69 69 70 70 70 70 70 69 68 68 68 68 68 68 68 68 69 69 70 70
70 71 73 74 75 75 76 76 77 77 77 77 75 75 74 74 74 73 72 70 69 68 68 69 70 71 72 72 72 72 72 71 71 71 71 71 71 71 71 72 73 73
73 75 76 77 77 77 77 77 78 78 78 78 77 76 75 74 75 75 75 74 73 72 71 71 71 72 72 73 74 74 74 74 74 74 74 74 74 74 75 75 76 76
74 78 80 81 81 81 80 80 80 80 80 79 78 77 76 75 74 74 74 75 75 74 73 73 73 73 74 74 75 75 76 76 76 77 77 77 77 78 78 78 78 79
67 72 77 81 83 84 83 83 83 82 81 80 79 78 76 75 75 75 76 76 76 75 74 74 74 74 75 75 76 77 78 78 79 79 79 79 80 80 81 81 81 81
63 64 67 72 76 79 80 81 80 80 81 81 80 79 77 76 77 77 79 80 79 78 76 76 76 77 77 77 78 78 79 80 81 82 81 81 81 82 83 83 83 83
67 67 68 69 70 71 73 75 76 77 79 81 82 83 83 82 81 80 80 80 80 80 79 79 79 80 80 80 81 81 81 81 82 82 82 82 83 83 83 84 84 84
75 75 76 76 75 74 74 75 77 79 81 83 85 88 88 88 88 86 85 84 83 82 82 81 81 81 82 83 84 84 84 84 84 84 83 83 82 82 83 83 84 84
82 82 83 83 83 83 82 82 83 85 85 86 86 87 87 87 87 88 89 90 89 88 86 85 84 85 85 86 87 88 88 88 87 87 86 85 84 83 82 82 82 83
87 88 88 89 90 90 91 91 91 91 91 91 92 91 91 90 89 90 91 93 94 93 91 89 90 91 92 92 91 92 92 92 92 90 89 88 87 86 85 84 83 82
90 90 91 92 93 94 95 96 96 97 97 97 98 98 98 98 97 96 96 96 97 97 97 96 96 97 97 98 97 96 96 97 97 96 94 92 90 89 88 88 87 85
93 93 93 93 94 95 96 97 98 99 100 100 101 101 101 101 100 100 100 100 100 102 103 104 103 101 100 101 102 102 101 101 101 101 100 99 97 95 93 92 91 91
96 96 96 97 97 98 99 99 100 101 102 102 103 103 103 103 103 103 103 103 103 104 106 107 107 106 104 104 104 105 106 106 106 105 105 105 103 102 100 98 97 96
101 101 102 102 102 102 103 103 104 104 105 105 105 106 106 106 106 107 106 106 106 106 107 108 108 109 108 108 108 108 108 109 110 109 109 109 109 108 106 104 102 100
105 106 106 107 107 107 107 108 108 108 108 109 109 109 110 110 110 109 109 109 108 108 108 108 109 109 109 110 111 111 111 112 113 113 113 113 113 113 112 111 109 107
104 105 105 106 106 107 107 108 109 109 110 110 111 111 112 112 113 113 113 112 112 111 111 110 109 109 108 109 110 110 111 112 113 114 115 116 117 117 116 115 114 113
99 99 99 99 100 101 102 103 103 104 105 106 107 108 109 110 111 112 113 113 114 114 114 113 112 111 110 110 110 110 110 111 112 113 114 115 116 117 117 116 115 114
91 91 91 92 92 93 94 95 96 97 98 98 99 100 101 102 104 105 107 108 110 111 112 112 113 113 112 112 112 112 112 112 113 114 114 114 115 115 115 115 115 114
84 84 85 85 86 87 88 89 90 90 91 92 92 93 94 94 95 96 97 99 101 103 105 106 107 108 108 109 111 112 112 113 114 115 115 115 116 116 116 115 115 115
79 79 80 80 81 82 83 84 85 85 86 87 88 88 89 89 89 90 90 91 92 94 96 97 98 99 100 102 104 106 108 110 112 114 115 115 116 116 116 117 116 116
76 76 77 78 79 80 80 81 82 82 83 84 85 86 86 86 86 86 86 86 87 88 89 90 90 90 92 94 97 99 101 104 107 109 111 112 113 114 115 116 116 117
75 76 77 78 79 80 80 81 82 82 83 83 84 84 84 84 84 84 84 83 83 84 85 85 84 84 86 89 91 93 96 99 101 103 105 107 107 108 109 110 112 114
76 78 78 79 80 80 81 81 81 81 81 82 82 81 80 80 80 80 80 80 81 81 82 82 81 80 82 85 87 89 92 94 96 98 99 100 101 101 102 103 104 106
78 78 78 78 78 78 79 79 79 79 79 79 79 78 78 77 78 77 76 77 78 78 79 80 78 77 80 82 83 85 88 91 93 94 95 95 95 96 96 97 97 98
76 76 76 77 77 77 78 78 78 78 78 77 77 76 75 75 74 74 72 72 73 73 73 73 72 71 72 74 75 77 81 85 87 90 91 92 93 93 93 93 92 92
75 75 76 77 77 77 77 77 76 75 74 73 72 71 70 68 67 65 63 62 61 60 59 60 60 60 61 63 65 67 70 74 77 79 82 84 86 89 90 90 90 89